COSMOS 1627

Satellite information

Favourite Embed

Satellite Type and Status

PAYLOADIN ORBIT

Key statistics

Satellite COSMOS 1627 at a glance.

Uptime

14925

Days in orbit

Revolutions

≈ 13.7

Per day

Orbit

LEO

Low Earth Orbit

Inclination

82.9

Latest

Satellite identification and parameters

Extended collection of information and parameters for COSMOS 1627.

Object identification

Identified? True

Debris? False

Object name: COSMOS 1627

International designator: 1985-011A

Object number (NORAD): 15505

Object ID (CCSDS): 15505

Country: COMMONWEALTH OF INDEPENDENT STATES (CIS)

Current information (Y/N): Y

RCS size: LARGE

Orbital parameters

Period: 104.759 minutes

Inclination: 82.9206 deg

SMA: 7361.302 km

Apoapsis: 1014.467 km

Periapsis: 951.867 km

RAAN: 186.1646 deg

Eccentricy: 0.004252

Argument of periapsis: 148.6154 deg

Mean anomaly: 323.479 deg

Mean motion: 13.74582453 rev/day

Mean motion (dot): 0.00000085 rev/day2

B* drag term: 0.000072879 1/REarth

Two-line elements (TLE)

Creation date: Dec. 12, 2025, 7:16 a.m.

Reference frame: TEME

Reference center: EARTH

Epoch: Dec. 12, 2025, 1 a.m. UTC

TLE line 0: 0 COSMOS 1627

TLE line 1: 1 15505U 85011A 25346.04173868 .00000085 00000-0 72879-4 0 9998

TLE line 2: 2 15505 82.9206 186.1646 0042520 148.6154 323.4790 13.74582453 49394

Live tracking on map

Real-time ground track for satellite COSMOS 1627.

In-orbit conjunctions

A list of the most updated potential collisions computed for object COSMOS 1627.

Target Orbit TCA Probability of collision Miss distance Type
DELTA 1 DEB SSO 2025-05-11 14:14:10 0.002199841 90.0 (m) DEBRIS

Associated space launch

Navigation satellite providing location information for the Tsiklon-B navigation system

COSMOS 1627 was lifted into orbit during the mission ‘Kosmos-3M | Parus 48’, on board a Kosmos-3M space rocket.

The launch took place on Feb. 1, 1985, 7:36 p.m. from 132/2.

For more information about the launch, click the button.

Launch to space Kosmos-3M | Parus 48
Kosmos-3M | Parus 48

Agency: N/A

Status: Launch Successful

Launch date: Feb. 1, 1985, 7:36 p.m. UTC

Rocket: Kosmos-3M

Launch pad: 132/2

Location: Plesetsk Cosmodrome, Russian Federation

...

Latest news about this satellite

There are no fresh news available about this satellite. Check back as we update our databases every day.


Newsletter sign-up

Weekly statistics, charts and insights to help you stay on top of the space industry.